Time,TemperatureF,DewpointF,PressureIn,WindDirection,WindDirectionDegrees,WindSpeedMPH,WindSpeedGustMPH,Humidity,HourlyPrecipIn,Conditions,Clouds,dailyrainin,SoftwareType,DateUTC
2013-09-29 00:02:00,49.5,41.2,29.96,SSE,148,0.0,0.9,73,0.00,,,0.00,meteobridge,2013-09-29 05:02:00,
2013-09-29 00:07:00,49.3,41.4,29.96,SSE,158,0.0,0.9,74,0.00,,,0.00,meteobridge,2013-09-29 05:07:00,
2013-09-29 00:12:00,49.3,41.4,29.96,ESE,120,0.9,2.0,74,0.00,,,0.00,meteobridge,2013-09-29 05:12:00,
2013-09-29 00:18:00,49.1,41.2,29.96,SE,139,0.0,0.9,74,0.00,,,0.00,meteobridge,2013-09-29 05:18:00,
2013-09-29 00:23:00,48.9,41.4,29.96,SSE,156,0.0,2.0,75,0.00,,,0.00,meteobridge,2013-09-29 05:23:00,
2013-09-29 00:28:00,48.7,41.2,29.96,South,174,0.9,0.9,75,0.00,,,0.00,meteobridge,2013-09-29 05:28:00,
2013-09-29 00:33:00,48.6,41.4,29.96,SSW,196,0.9,0.9,76,0.00,,,0.00,meteobridge,2013-09-29 05:33:00,
2013-09-29 00:38:00,48.4,41.2,29.96,SE,129,0.0,0.9,76,0.00,,,0.00,meteobridge,2013-09-29 05:38:00,
2013-09-29 00:43:00,48.4,41.2,29.96,SE,139,0.9,0.9,76,0.00,,,0.00,meteobridge,2013-09-29 05:43:00,
2013-09-29 00:48:00,48.0,41.2,29.96,SE,136,0.0,2.0,77,0.00,,,0.00,meteobridge,2013-09-29 05:48:00,
2013-09-29 00:53:00,48.0,41.5,29.96,SSE,150,0.0,0.9,78,0.00,,,0.00,meteobridge,2013-09-29 05:53:00,
2013-09-29 00:58:00,47.8,41.4,29.96,SSE,155,0.0,0.9,78,0.00,,,0.00,meteobridge,2013-09-29 05:58:00,
2013-09-29 01:04:00,47.7,41.2,29.96,South,178,0.0,0.9,78,0.00,,,0.00,meteobridge,2013-09-29 06:04:00,
2013-09-29 01:09:00,47.7,41.5,29.96,SSE,165,0.0,2.0,79,0.00,,,0.00,meteobridge,2013-09-29 06:09:00,
2013-09-29 01:14:00,47.8,41.7,29.96,SW,224,0.0,0.9,79,0.00,,,0.00,meteobridge,2013-09-29 06:14:00,
2013-09-29 01:19:00,47.8,41.7,29.96,SE,139,0.0,0.0,79,0.00,,,0.00,meteobridge,2013-09-29 06:19:00,
2013-09-29 01:24:00,47.7,41.5,29.97,SW,214,0.0,0.9,79,0.00,,,0.00,meteobridge,2013-09-29 06:24:00,
2013-09-29 01:29:00,47.7,41.5,29.97,WSW,252,0.0,0.0,79,0.00,,,0.00,meteobridge,2013-09-29 06:29:00,
2013-09-29 01:34:00,47.5,41.4,29.97,SSW,199,0.0,0.0,79,0.00,,,0.00,meteobridge,2013-09-29 06:34:00,
2013-09-29 01:39:00,47.3,41.4,29.97,SE,135,0.0,0.9,80,0.00,,,0.00,meteobridge,2013-09-29 06:39:00,
2013-09-29 01:44:00,47.1,41.4,29.97,SSE,154,0.0,0.0,80,0.00,,,0.00,meteobridge,2013-09-29 06:44:00,
2013-09-29 01:49:00,47.1,41.4,29.97,SE,137,0.9,0.9,80,0.00,,,0.00,meteobridge,2013-09-29 06:49:00,
2013-09-29 01:54:00,47.1,41.4,29.97,SE,146,0.0,2.9,80,0.00,,,0.00,meteobridge,2013-09-29 06:54:00,
2013-09-29 02:00:00,47.1,41.4,29.97,WSW,248,0.0,2.0,80,0.00,,,0.00,meteobridge,2013-09-29 07:00:00,
2013-09-29 02:05:00,47.1,41.4,29.97,SSE,153,0.0,2.0,80,0.00,,,0.00,meteobridge,2013-09-29 07:05:00,
2013-09-29 02:10:00,47.1,41.4,29.97,WSW,246,0.0,0.9,80,0.00,,,0.00,meteobridge,2013-09-29 07:10:00,
2013-09-29 02:15:00,47.1,41.4,29.97,SSW,200,0.0,2.0,80,0.00,,,0.00,meteobridge,2013-09-29 07:15:00,
2013-09-29 02:20:00,47.1,41.4,29.97,SE,134,0.0,0.9,80,0.00,,,0.00,meteobridge,2013-09-29 07:20:00,
2013-09-29 02:25:00,47.1,41.4,29.97,SSW,201,0.0,0.9,80,0.00,,,0.00,meteobridge,2013-09-29 07:25:00,
2013-09-29 02:30:00,47.1,41.4,29.97,SE,130,0.0,0.9,80,0.00,,,0.00,meteobridge,2013-09-29 07:30:00,
2013-09-29 02:36:00,46.9,41.2,29.97,SE,133,0.0,0.9,80,0.00,,,0.00,meteobridge,2013-09-29 07:36:00,
2013-09-29 02:41:00,46.9,41.4,29.97,SE,134,0.0,2.0,81,0.00,,,0.00,meteobridge,2013-09-29 07:41:00,
2013-09-29 02:46:00,46.8,41.2,29.97,SSE,156,0.0,0.9,81,0.00,,,0.00,meteobridge,2013-09-29 07:46:00,
2013-09-29 02:51:00,46.8,41.2,29.97,SSE,155,0.0,0.9,81,0.00,,,0.00,meteobridge,2013-09-29 07:51:00,
2013-09-29 02:56:00,46.6,41.4,29.97,WSW,239,2.0,2.9,82,0.00,,,0.00,meteobridge,2013-09-29 07:56:00,
2013-09-29 03:01:00,46.4,41.2,29.96,SSE,150,0.0,0.9,82,0.00,,,0.00,meteobridge,2013-09-29 08:01:00,
2013-09-29 03:06:00,46.2,41.0,29.96,SSE,147,0.0,2.0,82,0.00,,,0.00,meteobridge,2013-09-29 08:06:00,
2013-09-29 03:11:00,46.0,40.8,29.96,SSE,155,0.0,0.9,82,0.00,,,0.00,meteobridge,2013-09-29 08:11:00,
2013-09-29 03:16:00,45.9,41.0,29.96,SSE,158,0.0,0.9,83,0.00,,,0.00,meteobridge,2013-09-29 08:16:00,
2013-09-29 03:22:00,45.9,41.0,29.96,South,176,0.0,0.9,83,0.00,,,0.00,meteobridge,2013-09-29 08:22:00,
2013-09-29 03:27:00,45.9,41.0,29.96,SSE,152,0.9,2.0,83,0.00,,,0.00,meteobridge,2013-09-29 08:27:00,
2013-09-29 03:32:00,45.7,40.8,29.96,SSE,154,0.0,0.0,83,0.00,,,0.00,meteobridge,2013-09-29 08:32:00,
2013-09-29 03:37:00,45.7,40.8,29.96,SE,136,0.9,2.9,83,0.00,,,0.00,meteobridge,2013-09-29 08:37:00,
2013-09-29 03:42:00,45.7,40.8,29.96,SE,143,0.0,2.0,83,0.00,,,0.00,meteobridge,2013-09-29 08:42:00,
2013-09-29 03:47:00,45.7,40.8,29.96,SSE,154,0.0,2.0,83,0.00,,,0.00,meteobridge,2013-09-29 08:47:00,
2013-09-29 03:52:00,45.9,41.0,29.96,SE,146,0.0,0.9,83,0.00,,,0.00,meteobridge,2013-09-29 08:52:00,
2013-09-29 03:57:00,45.9,41.0,29.96,SSE,148,0.0,2.9,83,0.00,,,0.00,meteobridge,2013-09-29 08:57:00,
2013-09-29 04:02:00,45.9,41.0,29.96,SSE,147,0.9,2.0,83,0.00,,,0.00,meteobridge,2013-09-29 09:02:00,
2013-09-29 04:07:00,45.9,41.0,29.96,SW,225,0.0,2.0,83,0.00,,,0.00,meteobridge,2013-09-29 09:07:00,
2013-09-29 04:12:00,45.9,41.0,29.96,SSW,202,0.0,2.0,83,0.00,,,0.00,meteobridge,2013-09-29 09:12:00,
2013-09-29 04:17:00,45.9,41.0,29.96,SSE,166,0.9,0.9,83,0.00,,,0.00,meteobridge,2013-09-29 09:17:00,
2013-09-29 04:22:00,45.9,40.6,29.95,SE,146,0.0,2.9,82,0.00,,,0.00,meteobridge,2013-09-29 09:22:00,
2013-09-29 04:27:00,45.9,40.6,29.95,SSE,150,0.0,0.9,82,0.00,,,0.00,meteobridge,2013-09-29 09:27:00,
2013-09-29 04:32:00,45.7,40.8,29.95,SSE,151,0.0,2.9,83,0.00,,,0.00,meteobridge,2013-09-29 09:32:00,
2013-09-29 04:37:00,45.7,40.8,29.95,SE,133,0.9,0.9,83,0.00,,,0.00,meteobridge,2013-09-29 09:37:00,
2013-09-29 04:42:00,45.7,40.8,29.95,SSE,153,0.0,2.0,83,0.00,,,0.00,meteobridge,2013-09-29 09:42:00,
2013-09-29 04:47:00,45.7,40.8,29.95,SW,220,0.0,0.9,83,0.00,,,0.00,meteobridge,2013-09-29 09:47:00,
2013-09-29 04:52:00,45.7,40.8,29.95,SSE,153,2.0,2.0,83,0.00,,,0.00,meteobridge,2013-09-29 09:52:00,
2013-09-29 04:57:00,45.9,40.6,29.95,South,186,0.9,2.0,82,0.00,,,0.00,meteobridge,2013-09-29 09:57:00,
2013-09-29 05:03:00,45.9,40.6,29.95,SW,218,0.9,2.0,82,0.00,,,0.00,meteobridge,2013-09-29 10:03:00,
2013-09-29 05:08:00,45.9,40.3,29.95,ESE,120,0.0,2.0,81,0.00,,,0.00,meteobridge,2013-09-29 10:08:00,
2013-09-29 05:13:00,46.0,40.5,29.95,SSE,167,2.0,4.0,81,0.00,,,0.00,meteobridge,2013-09-29 10:13:00,
2013-09-29 05:18:00,46.0,40.5,29.95,SW,228,0.0,0.9,81,0.00,,,0.00,meteobridge,2013-09-29 10:18:00,
2013-09-29 05:23:00,46.2,40.6,29.95,SSE,156,2.9,2.9,81,0.00,,,0.00,meteobridge,2013-09-29 10:23:00,
2013-09-29 05:28:00,46.2,40.5,29.95,ESE,123,0.9,4.0,80,0.00,,,0.00,meteobridge,2013-09-29 10:28:00,
2013-09-29 05:33:00,46.2,40.6,29.94,SW,217,0.0,2.0,81,0.00,,,0.00,meteobridge,2013-09-29 10:33:00,
2013-09-29 05:38:00,46.2,40.5,29.94,SSE,153,0.0,4.9,80,0.00,,,0.00,meteobridge,2013-09-29 10:38:00,
2013-09-29 05:43:00,46.4,40.6,29.94,South,172,0.0,2.0,80,0.00,,,0.00,meteobridge,2013-09-29 10:43:00,
2013-09-29 05:48:00,46.2,40.5,29.94,SSE,155,0.9,0.9,80,0.00,,,0.00,meteobridge,2013-09-29 10:48:00,
2013-09-29 05:53:00,46.4,40.6,29.94,SE,142,0.9,2.9,80,0.00,,,0.00,meteobridge,2013-09-29 10:53:00,
2013-09-29 05:58:00,46.6,40.5,29.93,South,175,0.9,2.9,79,0.00,,,0.00,meteobridge,2013-09-29 10:58:00,
2013-09-29 06:03:00,46.8,40.3,29.93,SW,217,0.9,2.9,78,0.00,,,0.00,meteobridge,2013-09-29 11:03:00,
2013-09-29 06:08:00,47.1,40.6,29.93,SSW,200,0.0,2.9,78,0.00,,,0.00,meteobridge,2013-09-29 11:08:00,
2013-09-29 06:13:00,47.3,40.5,29.93,SE,146,0.9,4.0,77,0.00,,,0.00,meteobridge,2013-09-29 11:13:00,
2013-09-29 06:18:00,47.5,40.6,29.93,SE,137,2.0,4.0,77,0.00,,,0.00,meteobridge,2013-09-29 11:18:00,
2013-09-29 06:23:00,47.5,40.3,29.93,SE,142,2.0,2.9,76,0.00,,,0.00,meteobridge,2013-09-29 11:23:00,
2013-09-29 06:28:00,47.5,40.3,29.93,SSE,150,2.0,4.9,76,0.00,,,0.00,meteobridge,2013-09-29 11:28:00,
2013-09-29 06:34:00,47.7,40.5,29.93,South,184,2.9,6.0,76,0.00,,,0.00,meteobridge,2013-09-29 11:34:00,
2013-09-29 06:39:00,47.7,40.5,29.93,SE,136,0.9,2.9,76,0.00,,,0.00,meteobridge,2013-09-29 11:39:00,
2013-09-29 06:44:00,47.5,40.3,29.93,SSE,154,2.9,4.0,76,0.00,,,0.00,meteobridge,2013-09-29 11:44:00,
2013-09-29 06:49:00,47.3,40.1,29.93,SSE,158,0.9,4.0,76,0.00,,,0.00,meteobridge,2013-09-29 11:49:00,
2013-09-29 06:54:00,47.1,40.3,29.93,SSE,153,0.0,2.9,77,0.00,,,0.00,meteobridge,2013-09-29 11:54:00,
2013-09-29 06:59:00,46.9,40.1,29.93,SE,134,2.0,2.9,77,0.00,,,0.00,meteobridge,2013-09-29 11:59:00,
2013-09-29 07:04:00,46.8,40.3,29.93,SSE,150,2.9,2.9,78,0.00,,,0.00,meteobridge,2013-09-29 12:04:00,
2013-09-29 07:09:00,46.6,40.1,29.93,SSE,152,0.9,2.0,78,0.00,,,0.00,meteobridge,2013-09-29 12:09:00,
2013-09-29 07:14:00,46.2,39.7,29.93,SSE,148,0.0,2.0,78,0.00,,,0.00,meteobridge,2013-09-29 12:14:00,
2013-09-29 07:19:00,46.2,39.7,29.93,SSE,157,0.9,4.9,78,0.00,,,0.00,meteobridge,2013-09-29 12:19:00,
2013-09-29 07:24:00,46.4,39.9,29.93,South,181,0.9,2.0,78,0.00,,,0.00,meteobridge,2013-09-29 12:24:00,
2013-09-29 07:29:00,46.6,40.1,29.93,SSE,150,2.9,4.9,78,0.00,,,0.00,meteobridge,2013-09-29 12:29:00,
2013-09-29 07:34:00,46.8,39.9,29.93,South,172,0.9,4.0,77,0.00,,,0.00,meteobridge,2013-09-29 12:34:00,
2013-09-29 07:39:00,46.9,40.1,29.93,South,169,0.0,4.0,77,0.00,,,0.00,meteobridge,2013-09-29 12:39:00,
2013-09-29 07:44:00,47.1,39.9,29.92,SSE,163,4.9,6.0,76,0.00,,,0.00,meteobridge,2013-09-29 12:44:00,
2013-09-29 07:49:00,47.5,40.3,29.93,SSE,147,0.0,2.0,76,0.00,,,0.00,meteobridge,2013-09-29 12:49:00,
2013-09-29 07:55:00,47.7,40.5,29.93,SSE,147,0.0,0.9,76,0.00,,,0.00,meteobridge,2013-09-29 12:55:00,
2013-09-29 08:00:00,47.7,40.5,29.93,SSE,155,0.0,0.9,76,0.00,,,0.00,meteobridge,2013-09-29 13:00:00,
2013-09-29 08:05:00,48.0,40.8,29.93,SE,139,0.9,2.0,76,0.00,,,0.00,meteobridge,2013-09-29 13:05:00,
2013-09-29 08:10:00,48.7,41.2,29.93,SE,139,2.0,2.9,75,0.00,,,0.00,meteobridge,2013-09-29 13:10:00,
2013-09-29 08:15:00,49.5,41.2,29.92,SE,141,2.9,6.0,73,0.00,,,0.00,meteobridge,2013-09-29 13:15:00,
2013-09-29 08:20:00,50.2,41.5,29.93,SSE,158,0.9,4.0,72,0.00,,,0.00,meteobridge,2013-09-29 13:20:00,
2013-09-29 08:25:00,50.5,41.5,29.93,SSW,210,0.9,4.0,71,0.00,,,0.00,meteobridge,2013-09-29 13:25:00,
2013-09-29 08:30:00,51.3,41.9,29.92,SE,124,0.0,4.0,70,0.00,,,0.00,meteobridge,2013-09-29 13:30:00,
2013-09-29 08:36:00,52.2,42.3,29.93,SSW,211,0.0,0.9,69,0.00,,,0.00,meteobridge,2013-09-29 13:36:00,
2013-09-29 08:41:00,52.9,42.6,29.93,SSE,153,0.0,2.0,68,0.00,,,0.00,meteobridge,2013-09-29 13:41:00,
2013-09-29 08:46:00,53.4,42.8,29.93,SSE,161,0.9,2.9,67,0.00,,,0.00,meteobridge,2013-09-29 13:46:00,
2013-09-29 08:51:00,54.1,43.0,29.93,SSE,154,4.9,4.9,66,0.00,,,0.00,meteobridge,2013-09-29 13:51:00,
2013-09-29 08:56:00,54.5,42.6,29.92,SSE,156,4.0,8.1,64,0.00,,,0.00,meteobridge,2013-09-29 13:56:00,
2013-09-29 09:01:00,55.0,43.2,29.92,South,187,2.0,4.9,64,0.00,,,0.00,meteobridge,2013-09-29 14:01:00,
2013-09-29 09:06:00,55.2,43.3,29.92,SW,223,2.0,6.9,64,0.00,,,0.00,meteobridge,2013-09-29 14:06:00,
2013-09-29 09:11:00,55.6,43.5,29.92,SSE,150,2.0,4.9,64,0.00,,,0.00,meteobridge,2013-09-29 14:11:00,
2013-09-29 09:16:00,55.8,43.3,29.92,SE,125,4.0,6.0,63,0.00,,,0.00,meteobridge,2013-09-29 14:16:00,
2013-09-29 09:21:00,56.1,43.7,29.92,SE,145,0.0,4.0,63,0.00,,,0.00,meteobridge,2013-09-29 14:21:00,
2013-09-29 09:26:00,56.7,43.7,29.92,South,191,0.0,4.0,62,0.00,,,0.00,meteobridge,2013-09-29 14:26:00,
2013-09-29 09:31:00,57.2,43.9,29.92,SSE,155,0.0,8.1,61,0.00,,,0.00,meteobridge,2013-09-29 14:31:00,
2013-09-29 09:36:00,57.7,44.8,29.92,SE,139,0.9,4.9,62,0.00,,,0.00,meteobridge,2013-09-29 14:36:00,
2013-09-29 09:41:00,58.3,44.4,29.92,South,190,4.9,6.0,60,0.00,,,0.00,meteobridge,2013-09-29 14:41:00,
2013-09-29 09:46:00,58.5,44.6,29.92,SW,230,0.9,4.9,60,0.00,,,0.00,meteobridge,2013-09-29 14:46:00,
2013-09-29 09:51:00,58.6,45.3,29.92,SE,126,2.0,4.0,61,0.00,,,0.00,meteobridge,2013-09-29 14:51:00,
2013-09-29 09:56:00,59.0,44.8,29.92,SW,233,0.9,6.0,59,0.00,,,0.00,meteobridge,2013-09-29 14:56:00,
2013-09-29 10:01:00,59.7,45.3,29.92,SE,146,0.9,2.0,59,0.00,,,0.00,meteobridge,2013-09-29 15:01:00,
2013-09-29 10:06:00,60.3,45.0,29.92,SE,131,2.0,4.9,57,0.00,,,0.00,meteobridge,2013-09-29 15:06:00,
2013-09-29 10:11:00,61.0,45.7,29.92,SW,232,0.9,4.0,57,0.00,,,0.00,meteobridge,2013-09-29 15:11:00,
2013-09-29 10:16:00,61.7,45.3,29.91,SE,133,0.0,2.0,55,0.00,,,0.00,meteobridge,2013-09-29 15:16:00,
2013-09-29 10:21:00,62.4,45.1,29.92,ESE,113,0.9,2.0,53,0.00,,,0.00,meteobridge,2013-09-29 15:21:00,
2013-09-29 10:26:00,63.0,45.1,29.91,WSW,240,0.9,2.9,52,0.00,,,0.00,meteobridge,2013-09-29 15:26:00,
2013-09-29 10:31:00,63.3,45.9,29.91,SSW,193,0.0,4.0,53,0.00,,,0.00,meteobridge,2013-09-29 15:31:00,
2013-09-29 10:36:00,63.9,45.9,29.91,ESE,120,4.9,4.9,52,0.00,,,0.00,meteobridge,2013-09-29 15:36:00,
2013-09-29 10:41:00,63.7,45.7,29.91,SE,143,4.9,4.9,52,0.00,,,0.00,meteobridge,2013-09-29 15:41:00,
2013-09-29 10:46:00,63.5,45.5,29.91,SSE,166,2.9,6.0,52,0.00,,,0.00,meteobridge,2013-09-29 15:46:00,
2013-09-29 10:51:00,63.5,45.5,29.91,SSE,154,6.0,6.9,52,0.00,,,0.00,meteobridge,2013-09-29 15:51:00,
2013-09-29 10:56:00,63.9,46.9,29.91,WNW,291,2.9,6.9,54,0.00,,,0.00,meteobridge,2013-09-29 15:56:00,
2013-09-29 11:01:00,64.0,46.0,29.91,SE,143,4.9,8.1,52,0.00,,,0.00,meteobridge,2013-09-29 16:01:00,
2013-09-29 11:06:00,63.9,45.9,29.90,SE,129,2.0,4.0,52,0.00,,,0.00,meteobridge,2013-09-29 16:06:00,
2013-09-29 11:11:00,64.2,45.7,29.90,SSE,160,2.0,4.0,51,0.00,,,0.00,meteobridge,2013-09-29 16:11:00,
2013-09-29 11:16:00,64.6,46.0,29.90,SW,230,0.0,4.9,51,0.00,,,0.00,meteobridge,2013-09-29 16:16:00,
2013-09-29 11:22:00,64.9,45.3,29.90,SSE,167,0.0,8.1,49,0.00,,,0.00,meteobridge,2013-09-29 16:22:00,
2013-09-29 11:27:00,65.7,46.0,29.90,SSE,152,6.9,8.1,49,0.00,,,0.00,meteobridge,2013-09-29 16:27:00,
2013-09-29 11:32:00,65.8,46.8,29.90,SE,138,4.0,4.9,50,0.00,,,0.00,meteobridge,2013-09-29 16:32:00,
2013-09-29 11:37:00,66.6,46.8,29.90,SSE,163,6.0,6.9,49,0.00,,,0.00,meteobridge,2013-09-29 16:37:00,
2013-09-29 11:42:00,66.7,46.4,29.89,South,170,2.0,6.9,48,0.00,,,0.00,meteobridge,2013-09-29 16:42:00,
2013-09-29 11:47:00,67.3,46.9,29.89,SE,129,2.9,6.0,48,0.00,,,0.00,meteobridge,2013-09-29 16:47:00,
2013-09-29 11:52:00,67.6,47.3,29.89,ESE,109,2.0,4.0,48,0.00,,,0.00,meteobridge,2013-09-29 16:52:00,
2013-09-29 11:57:00,68.4,46.2,29.89,SE,143,2.0,6.9,45,0.00,,,0.00,meteobridge,2013-09-29 16:57:00,
2013-09-29 12:02:00,68.7,47.7,29.89,SSE,148,0.0,8.1,47,0.00,,,0.00,meteobridge,2013-09-29 17:02:00,
2013-09-29 12:07:00,69.1,46.8,29.89,SE,138,2.0,6.9,45,0.00,,,0.00,meteobridge,2013-09-29 17:07:00,
2013-09-29 12:12:00,69.6,47.3,29.88,SE,141,4.0,11.0,45,0.00,,,0.00,meteobridge,2013-09-29 17:12:00,
2013-09-29 12:17:00,69.3,46.4,29.88,SSE,155,2.0,8.9,44,0.00,,,0.00,meteobridge,2013-09-29 17:17:00,
2013-09-29 12:22:00,69.8,46.9,29.88,SSE,165,2.9,6.9,44,0.00,,,0.00,meteobridge,2013-09-29 17:22:00,
2013-09-29 12:27:00,70.2,46.6,29.88,SSE,150,6.0,8.9,43,0.00,,,0.00,meteobridge,2013-09-29 17:27:00,
2013-09-29 12:32:00,70.7,48.4,29.87,SW,216,0.0,2.9,45,0.00,,,0.00,meteobridge,2013-09-29 17:32:00,
2013-09-29 12:37:00,72.0,47.7,29.87,South,180,4.0,4.0,42,0.00,,,0.00,meteobridge,2013-09-29 17:37:00,
2013-09-29 12:42:00,71.8,45.5,29.86,South,174,2.9,6.0,39,0.00,,,0.00,meteobridge,2013-09-29 17:42:00,
2013-09-29 12:47:00,72.0,46.4,29.86,SW,224,2.9,6.9,40,0.00,,,0.00,meteobridge,2013-09-29 17:47:00,
2013-09-29 12:52:00,72.7,47.7,29.86,SSE,161,2.0,6.0,41,0.00,,,0.00,meteobridge,2013-09-29 17:52:00,
2013-09-29 12:57:00,72.7,45.7,29.86,SSE,161,4.0,8.9,38,0.00,,,0.00,meteobridge,2013-09-29 17:57:00,
2013-09-29 13:02:00,72.9,45.7,29.85,SSW,197,4.0,6.9,38,0.00,,,0.00,meteobridge,2013-09-29 18:02:00,
2013-09-29 13:07:00,73.6,46.4,29.85,SE,125,6.0,6.9,38,0.00,,,0.00,meteobridge,2013-09-29 18:07:00,
2013-09-29 13:12:00,73.8,46.6,29.85,SE,145,2.0,6.9,38,0.00,,,0.00,meteobridge,2013-09-29 18:12:00,
2013-09-29 13:18:00,74.3,46.4,29.84,SE,146,4.9,8.9,37,0.00,,,0.00,meteobridge,2013-09-29 18:18:00,
2013-09-29 13:23:00,74.8,46.8,29.84,SSW,212,2.9,4.0,37,0.00,,,0.00,meteobridge,2013-09-29 18:23:00,
2013-09-29 13:28:00,74.8,46.8,29.84,West,260,2.9,4.9,37,0.00,,,0.00,meteobridge,2013-09-29 18:28:00,
2013-09-29 13:33:00,75.4,46.6,29.84,South,180,4.0,12.1,36,0.00,,,0.00,meteobridge,2013-09-29 18:33:00,
2013-09-29 13:38:00,75.7,46.2,29.83,SSE,155,2.9,6.0,35,0.00,,,0.00,meteobridge,2013-09-29 18:38:00,
2013-09-29 13:43:00,76.3,45.9,29.83,SSE,148,2.0,10.1,34,0.00,,,0.00,meteobridge,2013-09-29 18:43:00,
2013-09-29 13:48:00,75.9,45.5,29.83,South,178,2.9,13.0,34,0.00,,,0.00,meteobridge,2013-09-29 18:48:00,
2013-09-29 13:53:00,75.9,46.2,29.82,SSW,196,2.0,10.1,35,0.00,,,0.00,meteobridge,2013-09-29 18:53:00,
2013-09-29 13:58:00,75.9,47.1,29.82,WSW,255,2.0,10.1,36,0.00,,,0.00,meteobridge,2013-09-29 18:58:00,
2013-09-29 14:03:00,76.6,46.9,29.82,SSE,167,2.0,4.9,35,0.00,,,0.00,meteobridge,2013-09-29 19:03:00,
2013-09-29 14:08:00,76.8,46.4,29.81,South,181,2.0,8.1,34,0.00,,,0.00,meteobridge,2013-09-29 19:08:00,
2013-09-29 14:13:00,77.2,45.9,29.81,SSE,149,6.9,13.0,33,0.00,,,0.00,meteobridge,2013-09-29 19:13:00,
2013-09-29 14:18:00,77.4,46.8,29.80,SSW,194,0.9,4.9,34,0.00,,,0.00,meteobridge,2013-09-29 19:18:00,
2013-09-29 14:23:00,77.7,46.4,29.80,SSW,212,2.0,8.1,33,0.00,,,0.00,meteobridge,2013-09-29 19:23:00,
2013-09-29 14:28:00,77.9,46.4,29.80,SE,146,4.9,10.1,33,0.00,,,0.00,meteobridge,2013-09-29 19:28:00,
2013-09-29 14:33:00,78.3,46.0,29.79,NW,311,2.0,10.1,32,0.00,,,0.00,meteobridge,2013-09-29 19:33:00,
2013-09-29 14:38:00,78.6,46.2,29.79,SSW,204,0.9,4.0,32,0.00,,,0.00,meteobridge,2013-09-29 19:38:00,
2013-09-29 14:43:00,79.2,45.9,29.79,WSW,237,2.0,6.0,31,0.00,,,0.00,meteobridge,2013-09-29 19:43:00,
2013-09-29 14:48:00,79.2,45.9,29.79,SSW,210,2.0,8.9,31,0.00,,,0.00,meteobridge,2013-09-29 19:48:00,
2013-09-29 14:53:00,79.2,45.9,29.78,SSW,195,6.0,11.0,31,0.00,,,0.00,meteobridge,2013-09-29 19:53:00,
2013-09-29 14:58:00,79.2,45.1,29.78,SW,231,2.0,8.9,30,0.00,,,0.00,meteobridge,2013-09-29 19:58:00,
2013-09-29 15:03:00,79.5,44.4,29.78,WSW,248,4.0,10.1,29,0.00,,,0.00,meteobridge,2013-09-29 20:03:00,
2013-09-29 15:08:00,79.7,44.6,29.78,SE,136,2.9,6.0,29,0.00,,,0.00,meteobridge,2013-09-29 20:08:00,
2013-09-29 15:13:00,80.1,44.1,29.77,SSW,203,6.0,8.9,28,0.00,,,0.00,meteobridge,2013-09-29 20:13:00,
2013-09-29 15:18:00,79.9,43.0,29.77,SSE,161,2.9,4.9,27,0.00,,,0.00,meteobridge,2013-09-29 20:18:00,
2013-09-29 15:23:00,79.7,43.7,29.76,SE,139,4.0,8.9,28,0.00,,,0.00,meteobridge,2013-09-29 20:23:00,
2013-09-29 15:28:00,79.9,43.0,29.76,NNW,338,2.0,6.0,27,0.00,,,0.00,meteobridge,2013-09-29 20:28:00,
2013-09-29 15:33:00,79.9,43.0,29.76,SW,227,2.0,8.1,27,0.00,,,0.00,meteobridge,2013-09-29 20:33:00,
2013-09-29 15:38:00,79.7,42.8,29.76,ESE,106,6.0,6.9,27,0.00,,,0.00,meteobridge,2013-09-29 20:38:00,
2013-09-29 15:43:00,79.7,43.7,29.76,SE,141,2.9,11.0,28,0.00,,,0.00,meteobridge,2013-09-29 20:43:00,
2013-09-29 15:48:00,79.9,44.8,29.75,SSW,197,2.0,6.0,29,0.00,,,0.00,meteobridge,2013-09-29 20:48:00,
2013-09-29 15:53:00,80.1,44.1,29.75,WSW,255,2.0,4.0,28,0.00,,,0.00,meteobridge,2013-09-29 20:53:00,
2013-09-29 15:58:00,80.2,44.2,29.75,SSW,213,4.9,8.1,28,0.00,,,0.00,meteobridge,2013-09-29 20:58:00,
2013-09-29 16:03:00,80.4,43.3,29.75,SE,142,8.9,8.9,27,0.00,,,0.00,meteobridge,2013-09-29 21:03:00,
2013-09-29 16:08:00,80.8,43.7,29.74,WSW,252,2.0,4.0,27,0.00,,,0.00,meteobridge,2013-09-29 21:08:00,
2013-09-29 16:13:00,81.0,41.9,29.74,NE,50,0.9,14.1,25,0.00,,,0.00,meteobridge,2013-09-29 21:13:00,
2013-09-29 16:18:00,81.1,44.1,29.74,SW,219,2.9,4.9,27,0.00,,,0.00,meteobridge,2013-09-29 21:18:00,
2013-09-29 16:23:00,81.3,42.1,29.74,South,186,11.0,11.0,25,0.00,,,0.00,meteobridge,2013-09-29 21:23:00,
2013-09-29 16:28:00,81.1,41.9,29.74,South,186,2.0,8.9,25,0.00,,,0.00,meteobridge,2013-09-29 21:28:00,
2013-09-29 16:33:00,81.1,41.9,29.74,SW,221,8.1,8.1,25,0.00,,,0.00,meteobridge,2013-09-29 21:33:00,
2013-09-29 16:38:00,81.1,41.0,29.74,SSE,165,4.9,11.0,24,0.00,,,0.00,meteobridge,2013-09-29 21:38:00,
2013-09-29 16:43:00,81.1,41.0,29.73,SSE,155,4.0,12.1,24,0.00,,,0.00,meteobridge,2013-09-29 21:43:00,
2013-09-29 16:48:00,81.1,41.9,29.73,SSE,154,2.0,10.1,25,0.00,,,0.00,meteobridge,2013-09-29 21:48:00,
2013-09-29 16:53:00,81.1,41.0,29.73,SSE,148,2.0,10.1,24,0.00,,,0.00,meteobridge,2013-09-29 21:53:00,
2013-09-29 16:58:00,81.0,41.9,29.73,WSW,251,4.9,10.1,25,0.00,,,0.00,meteobridge,2013-09-29 21:58:00,
2013-09-29 17:03:00,81.0,41.9,29.73,West,268,4.9,8.9,25,0.00,,,0.00,meteobridge,2013-09-29 22:03:00,
2013-09-29 17:08:00,81.0,40.8,29.73,SW,229,8.9,8.9,24,0.00,,,0.00,meteobridge,2013-09-29 22:08:00,
2013-09-29 17:13:00,80.8,41.7,29.73,South,179,2.9,13.0,25,0.00,,,0.00,meteobridge,2013-09-29 22:13:00,
2013-09-29 17:18:00,80.6,42.6,29.73,South,191,2.0,4.0,26,0.00,,,0.00,meteobridge,2013-09-29 22:18:00,
2013-09-29 17:24:00,80.6,42.6,29.72,ESE,109,2.9,6.9,26,0.00,,,0.00,meteobridge,2013-09-29 22:24:00,
2013-09-29 17:29:00,80.2,42.3,29.72,SE,138,2.9,12.1,26,0.00,,,0.00,meteobridge,2013-09-29 22:29:00,
2013-09-29 17:34:00,79.5,41.5,29.73,WNW,285,2.0,12.1,26,0.00,,,0.00,meteobridge,2013-09-29 22:34:00,
2013-09-29 17:39:00,79.2,42.3,29.73,WSW,257,8.9,11.0,27,0.00,,,0.00,meteobridge,2013-09-29 22:39:00,
2013-09-29 17:44:00,78.8,42.1,29.72,SSE,151,0.9,8.9,27,0.00,,,0.00,meteobridge,2013-09-29 22:44:00,
2013-09-29 17:49:00,78.6,41.9,29.72,South,188,4.0,11.0,27,0.00,,,0.00,meteobridge,2013-09-29 22:49:00,
2013-09-29 17:54:00,78.4,41.7,29.72,SE,134,6.0,6.0,27,0.00,,,0.00,meteobridge,2013-09-29 22:54:00,
2013-09-29 17:59:00,78.1,42.3,29.72,SSW,209,2.9,11.0,28,0.00,,,0.00,meteobridge,2013-09-29 22:59:00,
2013-09-29 18:04:00,77.7,43.9,29.72,SE,129,10.1,10.1,30,0.00,,,0.00,meteobridge,2013-09-29 23:04:00,
2013-09-29 18:09:00,77.2,43.3,29.72,SSW,204,2.9,8.9,30,0.00,,,0.00,meteobridge,2013-09-29 23:09:00,
2013-09-29 18:14:00,76.8,43.0,29.72,SE,141,2.0,12.1,30,0.00,,,0.00,meteobridge,2013-09-29 23:14:00,
2013-09-29 18:19:00,76.5,42.8,29.72,SSE,166,8.1,12.1,30,0.00,,,0.00,meteobridge,2013-09-29 23:19:00,
2013-09-29 18:24:00,76.1,43.3,29.72,ESE,106,2.9,6.0,31,0.00,,,0.00,meteobridge,2013-09-29 23:24:00,
2013-09-29 18:29:00,75.6,42.8,29.72,East,99,6.9,12.1,31,0.00,,,0.00,meteobridge,2013-09-29 23:29:00,
2013-09-29 18:34:00,75.2,43.3,29.72,SSW,192,2.9,13.0,32,0.00,,,0.00,meteobridge,2013-09-29 23:34:00,
2013-09-29 18:39:00,74.8,43.9,29.72,SSE,165,4.9,10.1,33,0.00,,,0.00,meteobridge,2013-09-29 23:39:00,
2013-09-29 18:44:00,74.5,43.5,29.72,SW,234,2.0,4.9,33,0.00,,,0.00,meteobridge,2013-09-29 23:44:00,
2013-09-29 18:49:00,74.1,43.9,29.72,SSW,202,4.9,6.9,34,0.00,,,0.00,meteobridge,2013-09-29 23:49:00,
2013-09-29 18:54:00,73.8,44.4,29.72,SE,130,2.0,12.1,35,0.00,,,0.00,meteobridge,2013-09-29 23:54:00,
2013-09-29 18:59:00,73.4,44.1,29.72,ESE,116,2.9,8.1,35,0.00,,,0.00,meteobridge,2013-09-29 23:59:00,
2013-09-29 19:04:00,73.2,43.9,29.72,SE,144,2.0,10.1,35,0.00,,,0.00,meteobridge,2013-09-30 00:04:00,
2013-09-29 19:09:00,72.9,44.4,29.72,SW,229,2.0,8.1,36,0.00,,,0.00,meteobridge,2013-09-30 00:09:00,
2013-09-29 19:14:00,72.3,43.9,29.72,SE,131,8.9,10.1,36,0.00,,,0.00,meteobridge,2013-09-30 00:14:00,
2013-09-29 19:19:00,72.1,44.4,29.72,South,172,4.0,12.1,37,0.00,,,0.00,meteobridge,2013-09-30 00:19:00,
2013-09-29 19:24:00,71.8,44.8,29.72,SSE,168,0.9,8.1,38,0.00,,,0.00,meteobridge,2013-09-30 00:24:00,
2013-09-29 19:30:00,71.4,44.4,29.72,SE,141,4.0,6.9,38,0.00,,,0.00,meteobridge,2013-09-30 00:30:00,
2013-09-29 19:35:00,71.1,44.8,29.72,SSE,153,2.9,11.0,39,0.00,,,0.00,meteobridge,2013-09-30 00:35:00,
2013-09-29 19:40:00,70.5,45.0,29.72,SW,219,2.9,6.9,40,0.00,,,0.00,meteobridge,2013-09-30 00:40:00,
2013-09-29 19:45:00,70.2,44.8,29.72,SE,132,2.9,8.9,40,0.00,,,0.00,meteobridge,2013-09-30 00:45:00,
2013-09-29 19:50:00,70.0,45.1,29.72,SSW,194,4.0,8.9,41,0.00,,,0.00,meteobridge,2013-09-30 00:50:00,
2013-09-29 19:55:00,69.6,45.0,29.72,SSE,151,6.9,8.1,41,0.00,,,0.00,meteobridge,2013-09-30 00:55:00,
2013-09-29 20:00:00,69.6,45.0,29.72,SSE,160,2.9,8.9,41,0.00,,,0.00,meteobridge,2013-09-30 01:00:00,
2013-09-29 20:05:00,69.4,45.3,29.72,SE,146,6.0,8.9,42,0.00,,,0.00,meteobridge,2013-09-30 01:05:00,
2013-09-29 20:10:00,69.3,45.1,29.72,SSE,150,4.0,8.9,42,0.00,,,0.00,meteobridge,2013-09-30 01:10:00,
2013-09-29 20:15:00,69.1,45.0,29.72,SSE,161,2.9,10.1,42,0.00,,,0.00,meteobridge,2013-09-30 01:15:00,
2013-09-29 20:20:00,68.7,45.3,29.72,South,176,4.9,11.0,43,0.00,,,0.00,meteobridge,2013-09-30 01:20:00,
2013-09-29 20:25:00,68.5,45.1,29.72,South,172,2.9,8.1,43,0.00,,,0.00,meteobridge,2013-09-30 01:25:00,
2013-09-29 20:30:00,68.4,45.0,29.72,SSE,153,4.9,10.1,43,0.00,,,0.00,meteobridge,2013-09-30 01:30:00,
2013-09-29 20:35:00,68.4,45.0,29.72,SSE,168,2.9,8.1,43,0.00,,,0.00,meteobridge,2013-09-30 01:35:00,
2013-09-29 20:40:00,68.2,44.8,29.72,SSW,200,4.0,11.0,43,0.00,,,0.00,meteobridge,2013-09-30 01:40:00,
2013-09-29 20:45:00,68.2,44.8,29.72,SSE,162,6.9,8.9,43,0.00,,,0.00,meteobridge,2013-09-30 01:45:00,
2013-09-29 20:50:00,67.8,45.1,29.72,South,171,4.0,8.9,44,0.00,,,0.00,meteobridge,2013-09-30 01:50:00,
2013-09-29 20:55:00,67.6,45.0,29.72,South,176,4.0,8.1,44,0.00,,,0.00,meteobridge,2013-09-30 01:55:00,
2013-09-29 21:00:00,67.5,44.8,29.72,South,169,6.9,16.1,44,0.00,,,0.00,meteobridge,2013-09-30 02:00:00,
2013-09-29 21:05:00,67.5,44.8,29.72,SSE,150,6.0,14.1,44,0.00,,,0.00,meteobridge,2013-09-30 02:05:00,
2013-09-29 21:10:00,67.3,45.1,29.73,South,188,8.9,8.9,45,0.00,,,0.00,meteobridge,2013-09-30 02:10:00,
2013-09-29 21:15:00,66.9,45.0,29.72,SE,128,6.0,12.1,45,0.00,,,0.00,meteobridge,2013-09-30 02:15:00,
2013-09-29 21:20:00,66.7,45.3,29.72,SSE,160,2.0,11.0,46,0.00,,,0.00,meteobridge,2013-09-30 02:20:00,
2013-09-29 21:26:00,66.4,45.0,29.72,SSE,161,4.0,10.1,46,0.00,,,0.00,meteobridge,2013-09-30 02:26:00,
2013-09-29 21:31:00,66.4,45.0,29.73,SSW,200,2.9,8.9,46,0.00,,,0.00,meteobridge,2013-09-30 02:31:00,
2013-09-29 21:36:00,66.0,44.6,29.72,SE,136,8.1,10.1,46,0.00,,,0.00,meteobridge,2013-09-30 02:36:00,
2013-09-29 21:41:00,66.0,44.6,29.72,SE,146,6.0,10.1,46,0.00,,,0.00,meteobridge,2013-09-30 02:41:00,
2013-09-29 21:46:00,66.0,44.6,29.72,SSE,160,4.0,10.1,46,0.00,,,0.00,meteobridge,2013-09-30 02:46:00,
2013-09-29 21:51:00,65.8,43.9,29.72,SE,126,6.0,12.1,45,0.00,,,0.00,meteobridge,2013-09-30 02:51:00,
2013-09-29 21:56:00,65.7,44.2,29.72,SW,235,0.0,8.1,46,0.00,,,0.00,meteobridge,2013-09-30 02:56:00,
2013-09-29 22:01:00,65.5,44.8,29.72,SE,134,2.0,11.0,47,0.00,,,0.00,meteobridge,2013-09-30 03:01:00,
2013-09-29 22:06:00,65.1,44.4,29.72,South,189,4.9,13.0,47,0.00,,,0.00,meteobridge,2013-09-30 03:06:00,
2013-09-29 22:11:00,65.1,44.4,29.72,South,169,6.0,14.1,47,0.00,,,0.00,meteobridge,2013-09-30 03:11:00,
2013-09-29 22:16:00,64.9,44.2,29.72,South,170,6.9,8.1,47,0.00,,,0.00,meteobridge,2013-09-30 03:16:00,
2013-09-29 22:21:00,64.9,44.2,29.72,SSE,165,8.1,10.1,47,0.00,,,0.00,meteobridge,2013-09-30 03:21:00,
2013-09-29 22:26:00,64.8,44.6,29.72,NNW,348,6.9,13.0,48,0.00,,,0.00,meteobridge,2013-09-30 03:26:00,
2013-09-29 22:31:00,64.6,44.4,29.72,SSW,195,8.1,8.1,48,0.00,,,0.00,meteobridge,2013-09-30 03:31:00,
2013-09-29 22:36:00,64.6,44.4,29.72,South,169,4.0,12.1,48,0.00,,,0.00,meteobridge,2013-09-30 03:36:00,
2013-09-29 22:41:00,64.6,44.4,29.72,West,266,6.0,13.0,48,0.00,,,0.00,meteobridge,2013-09-30 03:41:00,
2013-09-29 22:46:00,64.4,44.2,29.71,SSW,200,4.9,14.1,48,0.00,,,0.00,meteobridge,2013-09-30 03:46:00,
2013-09-29 22:51:00,64.2,44.1,29.72,SSE,160,4.0,16.1,48,0.00,,,0.00,meteobridge,2013-09-30 03:51:00,
2013-09-29 22:56:00,64.2,44.6,29.72,SE,144,4.0,6.9,49,0.00,,,0.00,meteobridge,2013-09-30 03:56:00,
2013-09-29 23:01:00,64.0,44.4,29.71,SW,233,6.0,10.1,49,0.00,,,0.00,meteobridge,2013-09-30 04:01:00,
2013-09-29 23:02:00,64.0,44.4,29.71,South,176,4.0,10.1,49,0.00,,,0.00,meteobridge,2013-09-30 04:02:00,
2013-09-29 23:03:00,63.9,44.8,29.71,ESE,117,2.9,8.1,50,0.00,,,0.00,meteobridge,2013-09-30 04:03:00,
2013-09-29 23:08:00,63.9,44.8,29.71,SSE,158,2.0,8.9,50,0.00,,,0.00,meteobridge,2013-09-30 04:08:00,
2013-09-29 23:13:00,63.9,44.2,29.71,SE,131,6.9,10.1,49,0.00,,,0.00,meteobridge,2013-09-30 04:13:00,
2013-09-29 23:18:00,63.7,44.8,29.71,SW,217,6.0,6.0,50,0.00,,,0.00,meteobridge,2013-09-30 04:18:00,
2013-09-29 23:23:00,63.7,44.8,29.71,ESE,123,2.9,11.0,50,0.00,,,0.00,meteobridge,2013-09-30 04:23:00,
2013-09-29 23:28:00,63.3,44.4,29.71,South,184,4.0,10.1,50,0.00,,,0.00,meteobridge,2013-09-30 04:28:00,
2013-09-29 23:33:00,63.1,44.2,29.71,SW,229,2.0,8.9,50,0.00,,,0.00,meteobridge,2013-09-30 04:33:00,
2013-09-29 23:38:00,63.1,44.8,29.71,South,177,4.0,10.1,51,0.00,,,0.00,meteobridge,2013-09-30 04:38:00,
2013-09-29 23:43:00,63.0,44.6,29.71,SSE,153,6.0,8.1,51,0.00,,,0.00,meteobridge,2013-09-30 04:43:00,
2013-09-29 23:48:00,63.0,44.6,29.71,South,188,6.0,8.1,51,0.00,,,0.00,meteobridge,2013-09-30 04:48:00,
2013-09-29 23:53:00,62.8,44.4,29.71,SSW,203,4.9,6.9,51,0.00,,,0.00,meteobridge,2013-09-30 04:53:00,
2013-09-29 23:58:00,62.6,44.2,29.71,SW,220,2.9,10.1,51,0.00,,,0.00,meteobridge,2013-09-30 04:58:00,